STARLINK-30099 (56304 NORAD) Tracking and Keplerian Element Data

This shows tracking and keplerian element data for the satellite.

Feedback or suggestion? Click here.




ElementValue
Catalog56304
NameSTARLINK-30099
Epoch Orbit305
Epoch Day126.00380345
Epoch Year2023
RAAN104.8137
Inclination43.0021
Eccentricity0.0001563
Argument of Perigee254.9331
Mean Anonmoly105.1357
Mean Motion15.51731253
Decay Rate0.00049253
L11 56304U 23056U 23126.00380345 .00049253 00000+0 80627-3 0 9999
L22 56304 43.0021 104.8137 0001563 254.9331 105.1357 15.51731253 3059



Live tracking and technical data element details for STARLINK-30099 (NORAD 56304). STARLINK-30099 can be tracked NOW for your location showing map with azimuth and elevation plus other details from your city location.







IsCatalogInMostPopularTable: catalog: 56304, numindb: 2
Update: records affected: 1



GetName: 56304 STARLINK-30099

Hit Count: updated at: Sat, 03 Jun 2023 17:06:31 GMT